This is the latest recevied weather packets stored in our database for station/object K5NOC-12. If no packets are shown the sender has not sent any weather packets the latest 10 day(s).
| Time | Temp. | Humidity | Pressure | Rain* | Wind** | Luminosity | Snow |
|---|---|---|---|---|---|---|---|
| 1777358403 | 13.89° C | 52% | 1013.2 hPa | 0 mm | - | - | - |
| 1777357503 | 14.44° C | 52% | 1013 hPa | 0 mm | - | - | - |
| 1777356603 | 13.89° C | 48% | 1012.8 hPa | 0 mm | - | - | - |
| 1777355703 | 15° C | 42% | 1012.7 hPa | 0 mm | - | - | - |
| 1777354802 | 15.56° C | 27% | 1012.7 hPa | 0 mm | - | - | - |
| 1777353902 | 16.11° C | 20% | 1012.3 hPa | 0 mm | - | - | - |
| 1777353002 | 16.67° C | 21% | 1012.3 hPa | 0 mm | - | - | - |
| 1777352102 | 17.22° C | 21% | 1012.3 hPa | 0 mm | - | - | - |
| 1777351202 | 17.22° C | 18% | 1012.1 hPa | 0 mm | - | - | - |
| 1777350301 | 17.22° C | 19% | 1012.1 hPa | 0 mm | - | - | - |
| 1777349401 | 17.22° C | 20% | 1011.9 hPa | 0 mm | - | - | - |
| 1777348501 | 17.78° C | 19% | 1012 hPa | 0 mm | - | - | - |
| 1777347601 | 18.33° C | 18% | 1012.1 hPa | 0 mm | - | - | - |
| 1777346701 | 18.89° C | 17% | 1012.3 hPa | 0 mm | - | - | - |
| 1777345800 | 20° C | 16% | 1012.2 hPa | 0 mm | - | - | - |
| 1777344900 | 20.56° C | 14% | 1012 hPa | 0 mm | - | - | - |
| 1777344000 | 21.11° C | 14% | 1011.9 hPa | 0 mm | - | - | - |
| 1777343100 | 21.67° C | 14% | 1011.7 hPa | 0 mm | - | - | - |
| 1777342200 | 22.22° C | 13% | 1011.3 hPa | 0 mm | - | - | - |
| 1777341299 | 22.78° C | 12% | 1011.2 hPa | 0 mm | - | - | - |
| 1777340399 | 23.89° C | 12% | 1011 hPa | 0 mm | - | - | - |
| 1777339499 | 24.44° C | 11% | 1010.9 hPa | 0 mm | - | - | - |
| 1777338599 | 25° C | 11% | 1010.7 hPa | 0 mm | - | - | - |
| 1777337699 | 25.56° C | 11% | 1010.6 hPa | 0 mm | - | - | - |
| 1777336799 | 26.11° C | 10% | 1010.5 hPa | 0 mm | - | - | - |
* Rain latest hour (hover to see other rain measurements)
** Current wind speed in m/s (hover to see current wind gust speed)